This is the latest recevied weather packets stored in our database for station/object W0BJ. If no packets are shown the sender has not sent any weather packets the latest 10 day(s).
| Time | Temp. | Humidity | Pressure | Rain* | Wind** | Luminosity | Snow |
|---|---|---|---|---|---|---|---|
| 1777738098 | 13.89° C | 45% | 1022.7 hPa | 0 mm | - | - | - |
| 1777737744 | 13.89° C | 44% | 1022.5 hPa | 0 mm | - | - | - |
| 1777737197 | 13.89° C | 46% | 1022.6 hPa | 0 mm | - | - | - |
| 1777737143 | 13.89° C | 46% | 1022.5 hPa | 0 mm | - | - | - |
| 1777736544 | 13.89° C | 49% | 1022.3 hPa | 0 mm | - | - | - |
| 1777736298 | 13.89° C | 50% | 1022.6 hPa | 0 mm | - | - | - |
| 1777735944 | 13.89° C | 50% | 1022.5 hPa | 0 mm | - | - | - |
| 1777735398 | 14.44° C | 52% | 1022.5 hPa | 0 mm | - | - | - |
| 1777735343 | 14.44° C | 52% | 1022.5 hPa | 0 mm | - | - | - |
| 1777734745 | 14.44° C | 54% | 1022.5 hPa | 0 mm | - | - | - |
| 1777734499 | 14.44° C | 55% | 1022.5 hPa | 0 mm | - | - | - |
| 1777734143 | 14.44° C | 59% | 1022.4 hPa | 0 mm | - | - | - |
| 1777733599 | 13.89° C | 60% | 1022.3 hPa | 0 mm | - | - | - |
| 1777733545 | 13.89° C | 61% | 1022.3 hPa | 0 mm | - | - | - |
| 1777732944 | 13.89° C | 61% | 1022.1 hPa | 0 mm | - | - | - |
| 1777732698 | 13.33° C | 64% | 1022.2 hPa | 0 mm | - | - | - |
| 1777732343 | 13.33° C | 64% | 1022.2 hPa | 0 mm | - | - | - |
| 1777731799 | 12.78° C | 65% | 1022.1 hPa | 0 mm | - | - | - |
| 1777731745 | 12.78° C | 65% | 1022.2 hPa | 0 mm | - | - | - |
| 1777731144 | 13.33° C | 66% | 1022.2 hPa | 0 mm | - | - | - |
| 1777730898 | 12.78° C | 67% | 1022.1 hPa | 0 mm | - | - | - |
| 1777730544 | 12.78° C | 68% | 1022.2 hPa | 0 mm | - | - | - |
| 1777729997 | 12.22° C | 70% | 1022 hPa | 0 mm | - | - | - |
| 1777729943 | 12.22° C | 70% | 1022.1 hPa | 0 mm | - | - | - |
| 1777729345 | 12.22° C | 70% | 1022 hPa | 0 mm | - | - | - |
* Rain latest hour (hover to see other rain measurements)
** Current wind speed in m/s (hover to see current wind gust speed)